This is the latest recevied weather packets stored in our database for station/object W0VI. If no packets are shown the sender has not sent any weather packets the latest 10 day(s).
| Time | Temp. | Humidity | Pressure | Rain* | Wind** | Luminosity | Snow |
|---|---|---|---|---|---|---|---|
| 1787753510 | 20° C | 83% | 1014.7 hPa | 0 mm | - | 185 W/m² | - |
| 1787753204 | 20° C | 83% | 1014.7 hPa | 0 mm | - | 171 W/m² | - |
| 1787752899 | 20° C | 84% | 1015 hPa | 0 mm | - | 169 W/m² | - |
| 1787752598 | 20° C | 83% | 1014.9 hPa | 0 mm | - | 298 W/m² | - |
| 1787752294 | 20.56° C | 84% | 1014.7 hPa | 0 mm | - | 221 W/m² | - |
| 1787751992 | 20° C | 85% | 1015 hPa | 0 mm | - | 231 W/m² | - |
| 1787751687 | 20° C | 85% | 1014.9 hPa | 0 mm | - | 204 W/m² | - |
| 1787751383 | 19.44° C | 86% | 1015 hPa | 0 mm | - | 180 W/m² | - |
| 1787751079 | 19.44° C | 87% | 1014.9 hPa | 0 mm | - | 166 W/m² | - |
| 1787750774 | 18.89° C | 87% | 1015 hPa | 0 mm | - | 150 W/m² | - |
| 1787750473 | 18.89° C | 88% | 1014.7 hPa | 0 mm | - | 142 W/m² | - |
| 1787750168 | 18.89° C | 89% | 1014.9 hPa | 0 mm | - | 98 W/m² | - |
| 1787749865 | 18.89° C | 89% | 1014.9 hPa | 0 mm | - | 69 W/m² | - |
| 1787749560 | 18.33° C | 89% | 1014.7 hPa | 0 mm | - | 78 W/m² | - |
| 1787749255 | 18.33° C | 90% | 1014.7 hPa | 0 mm | - | 69 W/m² | - |
| 1787748950 | 18.33° C | 90% | 1014.8 hPa | 0 mm | - | 63 W/m² | - |
| 1787748644 | 17.78° C | 91% | 1014.8 hPa | 0 mm | - | 77 W/m² | - |
| 1787748340 | 17.78° C | 91% | 1014.9 hPa | 0 mm | - | 52 W/m² | - |
| 1787748031 | 17.78° C | 92% | 1015 hPa | 0 mm | - | 54 W/m² | - |
| 1787747730 | 17.78° C | 92% | 1014.8 hPa | 0 mm | - | 49 W/m² | - |
| 1787747426 | 17.22° C | 93% | 1014.8 hPa | 0 mm | - | 50 W/m² | - |
| 1787747125 | 17.22° C | 93% | 1014.7 hPa | 0 mm | - | 41 W/m² | - |
| 1787746822 | 17.22° C | 93% | 1014.7 hPa | 0 mm | - | 36 W/m² | - |
| 1787746521 | 17.22° C | 93% | 1014.6 hPa | 0 mm | - | 32 W/m² | - |
| 1787746221 | 17.22° C | 93% | 1014.5 hPa | 0 mm | - | 28 W/m² | - |
* Rain latest hour (hover to see other rain measurements)
** Current wind speed in m/s (hover to see current wind gust speed)